Location: Atzenrod
(49.2576°N, 9.8664°E)
Time: 07:29:12
(UTC+00:00)

Daily predictions for brighter satellites

Satellite Brightness Start Highest point End
(mag) Time Altitude Azimuth Time Altitude Azimuth Time Altitude Azimuth
NOSS 0 Rocket 4.3 19:30:22 10° SW 19:36:30 73° WNW 19:42:43 10° NNE
MetOp-B 4.4 19:32:10 10° SSE 19:37:24 58° ENE 19:42:40 10° N
Cosmos 2056 Rocket 4.2 19:32:18 10° NNW 19:37:29 44° ENE 19:42:34 10° SE
Lacrosse 5 2.0 19:33:06 10° NW 19:38:15 88° NNE 19:43:23 10° SE
USA 276 1.4 19:39:26 10° W 19:41:36 69° N 19:43:50 10° E
Ariane Rocket 4.0 19:37:32 10° SE 19:42:00 32° ENE 19:46:29 10° N
Meteor 1-5 Rocket 4.5 19:36:16 10° N 19:42:12 63° ENE 19:47:56 10° SSE
IRS-1C Rocket 4.3 19:38:02 10° SSE 19:43:11 59° ENE 19:48:22 10° N
Cosmos 44 3.7 19:38:37 10° NNW 19:43:29 52° NE 19:48:00 10° ESE
CZ-4 R/B 3.9 19:40:51 10° SW 19:43:36 19° W 19:46:23 10° NW
Lacrosse 5 rocket 1.7 19:39:58 10° SSW 19:44:04 46° SE 19:48:09 10° ENE
Cosmos 2369 Rocket 3.1 19:39:44 10° NNW 19:44:55 37° NE 19:50:03 10° ESE
Cosmos 1812 Rocket 3.6 19:41:05 10° S 19:45:27 65° E 19:49:50 10° NNE
ATLAS 5 CENTAUR R/B 4.0 19:42:45 10° WNW 19:46:54 25° WSW 19:51:44 10° S
Cosmos 2344 4.2 19:42:22 10° NW 19:50:41 82° SW 20:02:12 10° SE
Cosmos 2221 3.4 19:47:03 10° SSE 19:50:53 32° E 19:54:45 10° NNE
Cosmos 2084 3.9 19:50:19 10° NW 19:53:57 44° NE 19:57:35 10° ESE
Resurs 01 Rocket 3.2 19:50:48 10° SSW 19:54:51 34° W 19:58:56 10° NNW
Cosmos 2237 Rocket 2.7 19:53:17 10° SW 19:58:56 66° WNW 20:04:39 10° NNE
BREEZE-M DEB (TANK) 2.5 19:56:55 10° SW 19:59:58 35° SSE 20:01:58 10° E
USA 308 3.7 19:58:09 10° W 20:00:15 21° SW 20:02:43 10° SSE
Cosmos 1378 2.8 19:58:08 10° S 20:01:23 61° E 20:04:38 10° NNE
ATLAS 3B R/B 3.1 19:54:15 10° NW 20:02:09 85° SW 20:09:48 11° SE
BREEZE-M DEB (TANK) 4.0 19:59:49 10° SW 20:03:18 43° SSE 20:11:53 10° E
Cosmos 921 Rocket 4.0 20:01:34 10° SSE 20:05:23 29° E 20:09:15 10° NE
Aureole 3 Rocket 3.1 20:02:47 10° N 20:06:18 56° E 20:10:54 10° SSE
GEOS 3 Rocket 4.1 20:02:39 10° NE 20:07:27 37° ESE 20:12:10 10° S
Cosmos 923 Rocket 4.0 20:02:29 10° SSW 20:07:47 79° ESE 20:13:09 10° NNE
SPOT 5 2.8 20:03:11 10° SSE 20:07:52 83° WSW 20:12:22 10° NNW
USA 306 3.9 20:05:14 10° WNW 20:08:45 39° N 20:12:27 10° ENE
Landsat 4 3.7 20:08:45 12° SSE 20:11:53 57° ENE 20:15:20 10° N
ARGOS Delta rocket 4.0 20:10:01 10° SSE 20:15:09 69° ENE 20:20:02 10° N
Cosmos 1943 4.5 20:12:15 12° SE 20:15:54 21° E 20:20:02 10° NE
Okean O Rocket 3.7 20:13:11 10° SSW 20:16:50 25° W 20:20:30 10° NW
USA 234 4.3 20:11:34 10° ENE 20:17:44 45° N 20:23:53 10° WNW
Terra 1.9 20:13:56 11° SSE 20:18:23 70° ENE 20:23:06 10° N
Cosmos 1656 Rocket 3.6 20:17:15 10° NNW 20:22:44 78° ENE 20:27:23 15° SSE
Cosmos 1371 Rocket 4.1 20:17:53 10° NNW 20:23:16 87° WSW 20:28:03 13° SSE
ERS-1 Rocket 3.0 20:18:56 10° SSE 20:23:54 90° ENE 20:28:58 10° NNW
ATLAS 2AS CENTAUR R/B 3.4 20:19:15 10° WSW 20:26:32 62° NW 20:33:34 10° NE
Cosmos 1842 Rocket 4.4 20:24:38 15° SSE 20:27:48 34° E 20:31:49 10° NNE
Meteor 1-14 Rocket 4.5 20:22:35 10° N 20:28:22 64° ENE 20:33:21 15° SSE
SPOT 3 Rocket 3.6 20:24:07 14° SSE 20:28:37 69° ENE 20:33:44 10° N
USA 59 Rocket 2.2 20:28:38 10° N 20:30:47 15° NNE 20:33:14 10° ENE
USA 281 3.3 20:27:32 14° SE 20:33:17 73° ENE 20:39:53 10° NNW
Cosmos 1943 Rocket 3.9 20:29:51 10° NW 20:34:32 27° WSW 20:39:11 10° SSW
Cosmos 1420 Rocket 4.4 20:30:30 10° NNW 20:35:44 60° WSW 20:40:30 12° S
Cosmos 1743 2.5 20:35:08 10° N 20:38:46 88° WSW 20:41:26 17° S
ISS -3.4 20:37:22 10° WNW 20:40:41 62° N 20:43:45 12° E
ARIANE 5 R/B 4.4 20:38:37 11° ESE 20:41:24 19° ENE 20:44:27 10° NNE
USA 245 3.2 20:42:39 18° SSW 20:44:00 35° W 20:46:06 10° NNW
Cosmos 2279 Rocket 4.1 20:40:03 10° N 20:46:13 65° ENE 20:50:54 18° SSE
Cosmos 2297 3.9 20:41:15 10° NNW 20:47:00 71° WSW 20:51:24 17° SSE
Cosmos 1634 Rocket 4.0 20:40:52 10° N 20:47:12 88° W 20:52:38 14° S
Cosmos 2112 Rocket 4.2 20:44:55 10° SSW 20:50:14 75° WNW 20:55:34 10° NNE
USA 290 4.3 20:48:33 10° NW 20:51:05 22° WSW 20:53:34 10° SSW
Cosmos 1766 Rocket 4.0 20:47:28 10° NNW 20:51:52 62° W 20:55:32 14° S
USA 229 DEB 4.0 20:48:15 10° NW 20:55:39 88° SW 21:01:46 19° SE
USA 229 4.0 20:48:21 10° NW 20:55:45 89° SW 21:01:53 19° SE
Cosmos 1726 1.8 20:54:13 10° N 20:57:20 60° ENE 20:58:35 31° SSE
Spot 2 Rocket 3.8 20:54:06 14° S 20:58:17 61° WSW 21:03:18 10° NNW
Cosmos 1680 Rocket 4.3 20:55:23 10° SW 21:00:33 54° WNW 21:05:45 10° NNE
Meteor 2-6 Rocket 4.2 20:58:42 10° SSW 21:04:21 87° W 21:09:54 10° NNE
USA 32 4.4 21:01:34 10° SSW 21:06:44 63° W 21:11:57 10° N
Cosmos 1743 Rocket 4.3 21:04:39 10° N 21:08:47 39° ENE 21:10:51 24° SE
Sich 1 3.5 21:09:38 10° N 21:13:52 47° ENE 21:15:51 27° SE
MetOp-A 3.7 21:11:24 25° SSE 21:13:58 84° WSW 21:18:45 10° NNW
USA 276 2.4 21:13:38 10° W 21:15:14 33° WSW 21:15:14 33° WSW
SL-16 R/B 3.0 21:10:33 10° SW 21:16:06 54° NW 21:21:42 10° NNE
Cosmos 2263 4.3 21:10:49 10° NNW 21:16:30 74° WSW 21:20:00 24° SSE
MOS 1 Rocket 4.0 21:13:56 18° S 21:17:37 55° W 21:22:46 10° NNW
Cosmos 1603 4.2 21:15:41 24° SSE 21:18:31 40° ESE 21:23:49 10° NE
Cosmos 1536 2.6 21:16:39 10° N 21:20:32 88° ENE 21:22:15 32° S
Cosmos 1975 4.5 21:17:27 10° NNE 21:20:32 22° ENE 21:21:58 18° E
Lacrosse 5 3.5 21:16:45 10° WNW 21:20:43 23° SW 21:23:08 16° SSW
Ariane Rocket 4.0 21:16:49 14° SSW 21:20:49 40° W 21:25:38 10° NNW
Cosmos 2180 Rocket 4.4 21:15:29 10° N 21:21:43 85° E 21:25:40 24° S
USA 267 4.2 21:17:27 10° ENE 21:22:29 23° SE 21:23:23 22° SE
Lacrosse 5 rocket 2.5 21:18:20 10° W 21:22:29 47° NNW 21:26:33 10° NE
Cosmos 1452 Rocket 3.5 21:18:37 10° NNW 21:23:53 88° WSW 21:26:45 28° SSE
Cosmos 1408 Rocket 3.5 21:19:28 10° N 21:23:56 87° W 21:26:12 29° S
Spot 1 4.1 21:20:28 10° N 21:24:30 70° WNW 21:27:37 17° SSW
Meteor 1-27 Rocket 3.9 21:22:18 25° SSE 21:25:18 54° E 21:30:41 10° NNE
Okean 1 3.2 21:25:59 35° SSE 21:27:27 65° E 21:31:18 10° NNE
Cosmos 1340 3.1 21:24:46 10° N 21:28:01 40° ENE 21:28:49 34° ESE
Cosmos 2221 4.4 21:24:28 10° SW 21:28:13 28° WNW 21:31:59 10° N
Cosmos 2369 Rocket 2.9 21:23:44 10° NW 21:29:02 45° WSW 21:32:23 21° S
Cosmos 1626 4.3 21:31:50 11° E 21:31:50 11° E 21:32:40 10° ENE
USA 306 3.0 21:39:06 10° WNW 21:42:56 64° NNE 21:45:08 24° E
GEOS 3 Rocket 4.4 21:40:33 10° NE 21:45:36 53° NW 21:50:35 10° WSW
ATLAS 3B R/B 4.5 21:46:05 10° WNW 21:52:00 24° WSW 21:57:02 13° SSW
Meteor 2-17 Rocket 4.4 21:50:28 27° S 21:53:58 83° E 22:00:04 10° NNE
SL-8 R/B 3.7 21:50:51 10° SW 21:55:27 52° SSE 22:00:06 10° E
Cosmos 1500 Rocket 3.9 21:52:00 10° NNW 21:56:14 54° W 21:57:58 32° SSW
Terra 4.1 21:53:32 10° SW 21:56:29 16° W 21:59:27 10° NW
Cosmos 1943 3.4 21:53:56 11° SW 21:59:21 73° WNW 22:05:03 10° NNE
Cosmos 1733 3.2 21:55:55 10° NNW 21:59:24 61° W 22:00:07 47° SSW
USA 234 3.8 21:53:46 10° E 22:00:11 60° NNE 22:06:37 10° WNW
Spot 4 4.3 21:58:25 32° SE 22:00:20 52° ENE 22:04:58 10° N
ALOS 2 3.6 21:58:50 26° ESE 22:00:30 36° ENE 22:04:32 10° N
Meteor 2-4 Rocket 4.1 22:00:28 32° SSE 22:02:54 52° E 22:08:39 10° NNE
H-2A R/B 2.5 22:02:30 44° SE 22:03:41 71° ENE 22:07:54 10° N
Cosmos 1805 Rocket 4.0 22:00:53 10° NNW 22:05:09 54° W 22:06:48 33° SSW
IRIDIUM 104 4.3 22:00:50 10° N 22:06:05 80° E 22:08:14 37° SSE
Lacrosse 4 Rocket 2.9 22:04:42 10° NNW 22:08:17 29° NE 22:10:34 18° E
Cosmos 1151 Rocket 3.0 22:08:37 41° S 22:10:07 88° W 22:14:30 10° N
Cosmos 1666 Rocket 3.6 22:08:54 10° N 22:13:13 66° ENE 22:14:23 45° SE
Cosmos 1092 Rocket 4.1 22:10:25 33° SSE 22:13:19 66° E 22:19:35 10° NNE
Cosmos 1428 Rocket 4.4 22:11:50 31° S 22:14:59 85° E 22:21:08 10° N
IRIDIUM 114 4.3 22:09:59 10° N 22:15:15 86° W 22:17:22 37° S
Cosmos 1302 Rocket 3.9 22:10:04 10° NNW 22:15:17 78° WSW 22:17:13 39° S
Cosmos 1656 4.2 22:10:46 10° NNW 22:16:04 50° NE 22:19:03 25° ESE
Cosmos 1633 Rocket 3.3 22:12:32 10° N 22:16:55 60° ENE 22:18:08 43° SE
ISS -2.9 22:14:06 10° WNW 22:16:33 37° WSW 22:16:33 37° WSW
ARIANE 5 R/B 2.9 22:16:04 39° SSW 22:17:25 56° WSW 22:21:42 10° NNW
Cosmos 1340 Rocket 3.1 22:17:22 37° SW 22:18:44 60° WNW 22:22:43 10° N
USA 59 Rocket 0.2 22:17:10 10° NW 22:20:57 69° NE 22:22:59 33° ESE
NOSS 2-1 (E) 3.7 22:18:01 10° NW 22:21:48 70° NE 22:23:49 34° ESE
MINOTAUR 4 R/B 4.4 22:19:09 10° N 22:22:01 43° WNW 22:22:22 41° W
Cosmos 1992 Rocket 4.1 22:18:26 10° NNW 22:23:40 67° ENE 22:25:48 35° SE
IRIDIUM 103 4.4 22:19:10 10° N 22:24:24 73° W 22:26:30 37° SSW
CZ-2C R/B 4.1 22:20:49 10° N 22:25:18 59° WNW 22:27:22 30° SW
H-2A R/B 3.6 22:21:50 10° NE 22:25:20 22° E 22:25:53 22° ESE
Cosmos 1697 Rocket 4.2 22:21:42 10° NNW 22:26:40 31° NE 22:31:17 11° ESE
Cosmos 614 Rocket 4.0 22:27:44 41° S 22:29:24 64° ESE 22:34:35 10° NNE
Cosmos 1766 3.6 22:26:43 10° N 22:30:21 48° ENE 22:30:52 44° ESE
Cosmos 2195 Rocket 4.4 22:27:33 31° SSW 22:30:39 82° W 22:36:48 10° N
Cosmos 1980 Rocket 4.4 22:27:33 10° N 22:31:48 21° NE 22:36:02 10° E
NOSS 2-1 (D) 3.4 22:29:38 10° NW 22:33:26 90° ENE 22:34:55 43° SE
Cosmos 1470 4.1 22:30:59 10° NNE 22:34:10 26° ENE 22:34:54 24° E
Cosmos 1805 3.9 22:36:08 10° NNW 22:39:38 40° W 22:40:09 38° WSW
Spot 2 4.4 22:50:57 46° SSW 22:52:06 64° WSW 22:56:52 10° NNW
Cosmos 1975 3.7 22:52:55 10° NNW 22:56:33 36° W 22:57:09 34° WSW
NOSS 3-3 (A) 4.1 22:59:41 40° SSE 23:01:03 48° ESE 23:07:05 10° NE
Lacrosse 5 rocket 3.5 22:57:54 10° WNW 23:01:35 28° N 23:05:09 10° ENE
Cosmos 1626 2.4 23:04:41 45° W 23:04:43 45° WNW 23:07:52 10° N
Cosmos 1269 Rocket 4.0 23:04:35 45° S 23:06:10 71° ESE 23:11:26 10° NNE
USA 267 3.2 22:59:42 10° ENE 23:06:15 72° SE 23:10:42 22° SW
Cosmos 1140 Rocket 4.5 23:05:26 29° SE 23:06:34 32° ESE 23:11:10 10° NE
Cosmos 1674 2.6 23:07:50 62° E 23:07:50 62° E 23:11:14 10° NNE
NOSS 2-1 (C) 3.9 23:04:51 10° NW 23:08:39 50° SW 23:09:07 47° SSW
Cosmos 2082 Rocket 4.3 23:08:47 12° ESE 23:10:30 13° E 23:13:00 10° ENE
PSLV R/B 3.6 23:08:21 10° NNE 23:12:59 76° ESE 23:13:59 53° S
NOSS 3-4 (A) 4.5 23:09:29 10° NW 23:15:57 53° NE 23:23:25 10° ESE
NOSS 3-4 (C) 4.5 23:09:32 10° NW 23:16:00 52° NE 23:23:28 10° ESE
USA 306 4.0 23:13:00 10° WNW 23:15:15 27° W 23:15:15 27° W
Cosmos 1833 Rocket 3.1 23:17:10 38° SSE 23:18:40 47° ESE 23:24:02 10° NE
Cosmos 44 Rocket 4.1 23:17:44 10° NNW 23:22:36 50° NE 23:26:07 17° ESE
Cosmos 2315 Rocket 4.4 23:18:08 10° N 23:24:18 56° ENE 23:27:37 28° SE
S3M 4.0 23:19:08 10° N 23:25:32 80° E 23:28:27 35° SSE
NOSS 3-3 (C) 3.8 23:26:06 41° SSW 23:28:04 67° SE 23:34:26 10° NE
SL-24 R/B 4.3 23:25:44 10° N 23:30:09 72° WNW 23:31:32 44° SW
Cosmos 2285 Rocket 4.4 23:29:13 34° SSE 23:31:35 50° ESE 23:37:39 10° NNE
Cosmos 1515 Rocket 3.7 23:31:37 47° SW 23:32:36 62° WNW 23:36:55 10° N
GP-B 3.2 23:30:28 10° N 23:34:52 64° E 23:35:54 47° SSE
Cosmos 1400 Rocket 4.3 23:34:57 23° ESE 23:35:42 24° E 23:38:59 10° NE
ALOS 2 3.8 23:36:13 26° WSW 23:36:54 28° W 23:40:41 10° NW
Cosmos 1553 Rocket 4.4 23:31:29 10° NNW 23:37:18 49° W 23:39:39 33° SW
SL-8 R/B 3.5 23:32:57 10° W 23:37:44 83° S 23:42:32 10° E
Cosmos 1869 Rocket 3.4 23:37:38 10° N 23:42:00 87° E 23:42:58 54° SSE
USA 234 3.2 23:38:51 23° SE 23:43:11 66° SW 23:49:44 10° WNW
Meteor 1-13 Rocket 4.3 23:41:22 38° S 23:43:44 77° E 23:49:39 10° NNE
Cosmos 1733 Rocket 4.2 23:41:05 10° N 23:45:07 37° ENE 23:46:57 25° ESE
Lacrosse 4 Rocket 2.0 23:42:51 10° NW 23:46:28 38° WSW 23:46:28 38° WSW
